Timeline UpdatesTrip UpdatesNews PostsPvt Posts♥♥Travel TipsAdmin PostsConv PostsFollowed PostsChat RequestsBlog PostsPNR Posts

Disclaimer
Search
 
 
Thu Nov 27, 2014 05:41:05 ISTHomeTrainsΣChainsAtlasPNRForumGalleryNewsFAQTripsMembersLoginFeedback
No Recent News for this Train
Other Trains in the News **new
Latest...
MST holders permitted to travel in IInd class general coaches between Bhatinda-Rohtak-Delhi
Sun Nov 23, 2014 (08:03PM)
⇐ Return Journey: Train# 19023

19024/Firozpur - Mumbai Central Janta Express

Time-Table HAS CHANGED.
Nov 23 (8:03PM)
Change Departure Station:
Change Arrival Station:
Post a Train Travel TipPost a Train Travel Tip **new
Post a Comment/Question/Picture/VideoPost a Comment/Question/Picture/Video
Inaugural Run
Mon Oct 01, 1956
Pantry/Catering
✕ NO Pantry Car
✓ Catering Avbl
Catering from local vendors
RSA - Rake Sharing
Dedicated Rake.No RSA
Rake/Coach Composition
LOCO<SLR,GS,GS(MST),GS,S-1, S-2, S-3, S-4, S-5, S-6, S-7, S-8,GS,SLR,HCPV=14+1
Loco
TKD WDP-4/4B between FZR-NDLS, GZB WAP5 between NDLS-BCT
News    PNR    Forum    Time-Table    Availability    Fare Chart    Map    Arr/Dep History    Trips    Gallery    ΣChains    X/O    Timeline    
Travel Time: 12h 34m    34 halts    Distance: 567 km    Avg Speed: 45 km/hr
Type: Mail/Express
Zone: WR/Western
Departs @ 07:12 (Avg 15m late)
Platform# ???
SMTWTFS
Meghnagar/MGN 
Arrives @ 19:46 (Avg 2m late)
Platform# 5
SMTWTFS
Mumbai Dadar Western/DDR 

34 halts. 105 intermediate Stations between Meghnagar and Mumbai Dadar Western

Show ALL intermediate Stations  Show Old Time-Table

#TrkCodeStation NameX/OArrivesAvgDepartsAvgHaltPFDay#KmSpeedElevZoneAddress
1|--|FZRFirozpur Cantt. Junction (5)  -05:10 05:05+1411-1200.177200mNRFirozpur Cantt 152001, Punjab
2|--|FDKFaridkot (3)  05:34 05:30+2105:36 05:32+212m11-1167.848202mNRFaridkot, Punjab
3|--|KKPKot Kapura Junction (3)  05:50 05:48+2005:52 05:50+212m11-1155.1750mNRKotkapura, Punjab
4|--|GJUTGangsar Jaitu (3)  06:07 06:03+2206:09 06:05+222m11-1138.847207mNRJaitu, Punjab
5|--|GNAGoneana Bhai Jagta (3)X  06:23+1806:25+192m11-1124.634206mNRGoniana, Punjab
6|--|BTIBathinda Junction (6)  06:55 06:47+1407:05 07:00+1410 13m21-1112.389208mNRBathinda, Punjab
7!==!MAURMaur  07:31 07:24+2907:33 07:26+292m--1-1076.867220mNRMaur Mandi, Punjab
8!==!KTKLKotli Kalan  07:39 07:35-07:41 07:36-2 1m--1-1066.727219mNRState Highway 12A, Punjab
9!==!MSZMansa  07:54 07:55+2107:56 07:57+212m--1-1058.181222mNRMansa, Punjab
10!==!BLZBudhlada  08:09+2608:11+262m--1-1042.071223mNRBudhlada, Punjab
11!==!BRZBareta  08:24+2708:26+272m--1-1026.657223mNRBareta, Punjab
12!==!JHLJakhal Junction  08:43 08:41+2608:45 08:43+272m--1-1012.456225mNRJakhal, Haryana
13|==|TUNTohana (2)  08:56+2808:58+282m--1-1000.276232mNRTohana, Haryana
14|==|NRWNarwana Junction (4)X  09:18+2609:20+262m--1-974.770235mNRKKDE, Haryana
15|==|UCAUchana  09:33+2609:35+262m--1-959.545225mNRDistrict Jind, Haryana
16|==|JINDJind Junction (3)  10:00+2310:05+225m--1-940.881222mNRJind 126102, Haryana
17|==|JNAJulana  10:27 10:24+2710:29 10:26+272m--1-915.165226mNRJulana, Haryana
18|==|ROKRohtak Junction (3)  11:05 10:55+3011:08 11:00+283 5m--1-883.781220mNRRohtak, Haryana
19/==/ISMIsmaila Haryana  11:26 11:14-11:28 11:16-2m--1-864.942221mNRNational Highway 10, Haryana
20/==/SPZSampla  11:32 11:21+3111:34 11:23+312m--1-861.472222mNRSampla, Haryana
21/==/BGZBahadurgarhX  11:49 11:38+3311:51 11:40+332m--1-843.458220mNRBahadurgarh, Haryana
22/==/NNONangloi  12:03 11:53+3712:05 11:55+402m--1-830.928219mNRJJ Colony No 1, Delhi NCT
23/==/MGLPMangolpuri  12:09 12:02+1812:11 12:04+182m--1-827.721217mNROutter Ring Rd, Delhi NCT
24/==/SSBShakur BastiX  12:21 12:16+3112:23 12:18+332m--1-823.532216mNRPitampura, Delhi NCT
25/==/DKZDelhi KishanGanj (2)  12:36 12:31+4012:38 12:33+402m--1-816.511220mNRSarai Rohilla, Delhi NCT
26/==/NDLSNew Delhi (16)XO13:05 12:55+4213:35 13:25+4230m71-812.625215mNRNew Delhi 110002, Delhi NCT
27/==/NZMDelhi Hazrat Nizamuddin (7)O  13:49 13:43+4413:51 13:45+452m11-805.332209mNRNew Delhi 110013, Delhi NCT
28/==/OKAOkhla (4)  13:57 13:52+4413:59 13:53+442 1m--1-801.660221mNRIshwar Nagar Mathura Road, Delhi NCT
29/==/TKDTuglakabad (2)XO  14:06 13:59+4814:08 14:01+482m11-795.644213mNRNear Tughlakabad Metro Station, Delhi NCT
30/==/FDBFaridabad (4)  14:23 14:16+4314:25 14:18+442m31-784.544206mNRold Faridabad, Haryana
31/==/BVHBallabgarh (5)  14:43 14:29+4914:45 14:31+482m--1-776.427203mNRFaridabad, Haryana
32/==/PWLPalwal (8)O  15:18+2215:20+232m--1-755.285200mNRPalwal, Haryana
33/==/KSVKosi Kalan (3)  15:50+4915:52+532m21-712.847189mNCRKosi Kalan, Uttar Pradesh
34/==/CHJChata (4)X  16:03 16:05+5116:05 16:07+522m--1-702.535 NCRChhata, Uttar Pradesh
35/==/MTJMathura Junction (10)  17:00+3417:05+395m31-671.380179mNCRMathura, Uttar Pradesh
36/==/BTEBharatpur Junction (5)O  17:30+4917:35+495m31-637.872174mWCRBharatpur, Rajasthan
37/==/BXNBayana Junction (3)X  18:10+4818:15+485m--1-595.891198mWCRBayana, Rajasthan
38/==/FSPFateh SinghpuraX  18:28+5118:30+532m--1-576.144223mWCRState Highway 1, Rajasthan
39/==/HANHindaun City (2)  18:48+4918:50+552m--1-562.961230mWCRKarauli, Rajasthan
40/==/SMBJShri Mahabirji (3)X  19:00+5419:02+542m--1-552.754240mWCRKarauli, Rajasthan
41/==/GGCGangapur City (3)  19:50 19:40+4619:55 19:45+515m21-518.668270mWCRGangapur, Rajasthan
42/==/NNWNarayanpur Tatwara (2)  20:11 20:00+5520:12 20:02+551 2m--1-501.763256mWCRSawai Madhopur, Rajasthan
43/==/MLZMalarnaXO  20:40 20:18+5220:42 20:20+532m21-484.940236mWCRSawai Madhopur, Rajasthan
44/==/SWMSawai Madhopur Junction (4)  21:05+3821:10+435m21-454.778266mWCRSawai Madhopur, Rajasthan
45/==/IDGIndargarh Sumerganj Mandi (2)  21:35 21:38+4621:37 21:40+482m--1-418.566247mWCRIndargarh, Rajasthan
46/==/LKELakheri (3)X  21:47 21:50+4921:49 21:52+512m--1-407.544228mWCRBundi, Rajasthan
47/==/KOTAKota Junction (5)  23:10 23:15+5923:20+1:0510 5m21-346.968256mWCRKota, Rajasthan
48/==/RMARamganj Mandi Junction (3)X  00:23+1:0100:25+1:042m--2-275.657358mWCRRamganj Mandi, Rajasthan
49/==/JHWJhalawar Road (3)XO  00:38+1:0300:40+1:042m--2-263.330361mWCRJhalawar City, Rajasthan
50/==/BWMBhawani Mandi (3)X  01:13+4601:15+502m--2-246.874384mWCRBhawani Mandi, Madhya Pradesh
51/==/SGZShamgarh (3)  01:42+5001:47+505m--2-213.350463mWCRMandsaur, Madhya Pradesh
52/==/SVASuwasra (2)O  02:03+4602:05+472m--2-199.940450mWCRSuwasra, Madhya Pradesh
53/==/CMUChau Mahla (3)  02:28+3702:30+402m12-184.520426mWCRJhalawar, Rajasthan
54/==/VMAVikramgarh Alot (2)X  03:36+503:38+82m12-162.740443mWCRKota Division, Madhya Pradesh
55/==/MEPMahidpur Road  04:13 04:14+004:15+52 1m--2-138.841493mWCRGogapur, Madhya Pradesh
56/==/NADNagda Junction (4)X  04:40+204:45+75m--2-121.764468mWRNagda, Madhya Pradesh
57/==/KUHKhachrod (2)X  04:56 04:58+904:58 05:00+102m--2-107.937497mWRUjjain, Madhya Pradesh
58/==/RTMRatlam Junction (7)X  05:45+406:00+715m42-80.373495mWRRatlam 457001, Madhya Pradesh
59/==/BMIBamnia (2)  06:35 06:37+1306:37 06:38+142 1m--2-35.572392mWRBamnia, Madhya Pradesh
60/==/THDRThandla Road (2)  06:59 07:01+1507:01 07:02+152 1m--2-8.060317mWRJhabua, Madhya Pradesh
61/==/MGNMeghnagar (3)»  07:08 07:10+1507:10 07:12+152m--20.086317mWRJhabua, Madhya Pradesh
62/==/DHDDahod (3)X  07:35+2307:40+235m--233.168313mWRDahod, Gujarat
63/==/LMKLimkheda  08:07 08:09+2208:09 08:10+232 1m--266.160205mWRLimkheda, Gujarat
64/==/PPDPiplod Junction  08:16 08:18+2208:18 08:19+222 1m--274.079209mWRPiplod, Gujarat
65/==/SATSant Road (2)X  08:26 08:28+2308:28 08:29+232 1m2285.920169mWROrwara, Gujarat
66/==/GDAGodhra Junction (3)X  09:29 09:30+009:34 09:35+35m12106.279122mWRGodhra, Gujarat
67/==/DRLDerol  09:53+709:55+72m--2129.87981mWRKalol, Gujarat
68/==/SMLASamlaya Junction (3)  10:13+710:15+62m--2153.55367mWRVadodara, Gujarat
69/==/BRCVadodara Junction (7)X10:45+910:55+810m12180.18936mWRVadodara 390005, Gujarat
70/==/MYGMiyagam Karjan (2)  11:15+1711:17+162m22210.08329mWRKarjan, Gujarat
71/==/PLJPalej (4)  11:28+1711:30+172m--2225.28029mWRPalej, Gujarat
72/==/NIUNabipur (3)X  11:40+2111:42+202m--2238.65224mWRNabipur, Gujarat
73/==/BHBharuch Junction (5)X  11:56+2111:58+232m22250.66219mWRBharuch, Gujarat
74/==/AKVAnkleshwar Junction (4)O  12:07+1612:09+172m22260.04819mWRAnkleshwar, Gujarat
75/==/PAOPanoli (3)  12:22+2012:24+192m--2270.36229mWRPanoli, Gujarat
76/==/KSBKosamba Junction (3)XO  12:32+2212:34+222m22278.55830mWRKosamba, Gujarat
77/==/KIMKim (2)  12:42+1812:44+182m--2286.33118mWRNH 8, Gujarat
78/==/STSurat (4)X  13:30+813:35+85m22309.97119mWRSurat 395001, Gujarat
79/==/MRLMaroli (3)O  13:53+1613:55+182m22331.14615mWRMaroli, Gujarat
80/==/NVSNavsari (3)  14:06+1514:08+172m22339.55514mWRNavsari, Gujarat
81/==/AMLAmalsad (3)O  14:25+1514:27+162m22355.13712mWRAmalsad, Gujarat
82/==/BIMBilimora Junction (4)XO  14:36+1414:38+152m22360.73611mWRBilimora, Gujarat
83/==/BLValsad (3)X  15:08+915:10+152m32378.64915mWRValsad, Gujarat
84/==/PADPardi (3)X  15:24 15:23+1415:26 15:25+132m--2389.34519mWRValsad, Gujarat
85/==/UVDUdvada (3)  15:33+1215:35+122m--2395.35218mWRUdvada, Gujarat
86/==/VAPIVapi (3)X  15:46+1015:48+192m22404.93427mWRVapi, Gujarat
87/==/BLDBhilad (3)XO  16:08+1416:10+142m--2416.16933mWRBhilad, Gujarat
88/==/SJNSanjan (3)XO  16:20+1516:22+152m--2427.75422mWRSanjan, Gujarat
89/==/UBRUmbargam Road (3)X  16:28+1616:30+162m--2433.14730mWRUmbergaon, Gujarat
90/==/DRDDahanu Road (5)XO  16:56+816:58+92m--2453.47412mWRDahanu, Maharashtra
91/==/VGNVangaon (3)XO  17:08+1017:10+92m--2465.77111mWRDist. Palghar, Maharashtra
92/==/BORBoisar (3)XO  17:18+917:20+92m32475.16117mWRBoisar Tel.no-02525-266626, Maharashtra
93/==/PLGPalghar (3)XO  17:31+817:33+82m22486.45719mWRPalghar, Maharashtra
94/==/VRVirar (8)XO  18:06+318:08+62m42517.5526mWRDist. Palghar, Maharashtra
95/==/BVIMumbai Borivali (8)  18:38+118:40+52m52543.32219mWRMumbai - 400092, Maharashtra
96/==/DDRMumbai Dadar Western (6)•  19:46+219:48+32m52567.1166mWRMumbai, Maharashtra
97/==/BCTMumbai Central (9)  20:10+0-52573.0-3mWRMumbai 400008, Maharashtra
Scroll to Top
Scroll to Bottom